Weather History for Lincoln, IL

Change the Weather History Date:

Saturday, January 4, 2014

  Actual Average (KSPI) Record (KSPI)
Temperature  
Mean Temperature 30 °F 27 °F  
Max Temperature 37 °F 35 °F 68 °F (1997)
Min Temperature 23 °F 19 °F -17 °F (1884)
Degree Days  
Heating Degree Days 35 38  
Month to date heating degree days 152  
Since 1 July heating degree days 2292  
Cooling Degree Days 0 0  
Month to date cooling degree days 0  
Year to date cooling degree days 0  
Moisture  
Dew Point 23 °F    
Average Humidity 72    
Maximum Humidity 96    
Minimum Humidity 62    
Precipitation  
Precipitation 0.01 in 0.07 in 1.50 in (1993)
Month to date precipitation 0.28  
Year to date precipitation 0.28  
Snow  
Snow 0.00 in 0.30 in 8.00 in (1882)
Month to date snowfall 0.9  
Since 1 July snowfall 7.1  
Snow Depth -    
Sea Level Pressure  
Sea Level Pressure 29.95 in    
Wind  
Wind Speed 14 mph (SSW)    
Max Wind Speed 22 mph    
Max Gust Speed 29 mph    
Visibility 10 miles    
Events      
T = Trace of Precipitation, MM = Missing Value Source: NWS Daily Summary

Daily Weather History Graph

Daily Weather History Graph

Search for Another Location

Airport:

Trip Planner

Search our weather history database for the weather conditions in past years. The results will help you decide how hot, cold, wet, or windy it might be!

Date:

Astronomy

Jan. 04, 2014 Rise Set
Actual Time 7:19 AM CST 4:45 PM CST
Civil Twilight 6:49 AM CST 5:15 PM CST
Nautical Twilight 6:15 AM CST 5:49 PM CST
Astronomical Twilight 5:42 AM CST 6:22 PM CST
Moon 9:25 AM CST (1/4) 9:05 PM CST (1/4)
Length of Visible Light 10h 25m
Length of Day
9h 25m
Waxing Crescent, 15% of the Moon is Illuminated
Jan 4
Waxing Crescent
Jan 7
First Quarter
Jan 15
Full
Jan 23
Last Quarter
Jan 30
New

Hourly Weather History & Observations

Time (CST) Temp. Windchill Dew Point Humidity Pressure Visibility Wind Dir Wind Speed Gust Speed Precip Events Conditions
12:15 AM 23.4 °F 8.4 °F 15.8 °F 73% 29.97 in 10.0 mi South 20.7 mph 27.6 mph N/A   Clear
12:35 AM 23.2 °F 9.4 °F 15.8 °F 73% 29.97 in 10.0 mi South 17.3 mph 24.2 mph N/A   Clear
12:55 AM 23.9 °F 10.3 °F 15.8 °F 71% 29.97 in 10.0 mi South 17.3 mph 27.6 mph N/A   Clear
1:15 AM 24.1 °F 9.0 °F 15.8 °F 71% 29.96 in 10.0 mi South 21.9 mph 26.5 mph N/A   Clear
1:35 AM 24.4 °F 9.9 °F 16.0 °F 70% 29.96 in 10.0 mi South 20.7 mph 27.6 mph N/A   Clear
1:55 AM 24.6 °F 10.9 °F 15.8 °F 69% 29.97 in 10.0 mi South 18.4 mph 26.5 mph N/A   Clear
2:15 AM 24.6 °F 13.2 °F 15.8 °F 69% 29.97 in 10.0 mi South 12.7 mph 23.0 mph N/A   Clear
2:35 AM 24.8 °F 11.9 °F 15.6 °F 68% 29.97 in 10.0 mi South 16.1 mph 23.0 mph N/A   Clear
2:55 AM 24.8 °F 11.1 °F 15.4 °F 68% 29.96 in 10.0 mi South 18.4 mph 24.2 mph N/A   Clear
3:15 AM 25.2 °F 11.2 °F 15.8 °F 68% 29.94 in 10.0 mi South 19.6 mph 28.8 mph N/A   Clear
3:35 AM 25.5 °F 10.9 °F 15.8 °F 67% 29.94 in 10.0 mi South 21.9 mph 26.5 mph N/A   Clear
3:55 AM 25.7 °F 12.7 °F 15.8 °F 66% 29.93 in 10.0 mi South 17.3 mph 28.8 mph N/A   Clear
4:15 AM 26.1 °F 14.0 °F 16.0 °F 66% 29.93 in 10.0 mi South 15.0 mph 24.2 mph N/A   Clear
4:35 AM 26.2 °F 13.0 °F 16.2 °F 66% 29.93 in 10.0 mi South 18.4 mph 23.0 mph N/A   Clear
4:55 AM 26.6 °F 13.8 °F 16.3 °F 65% 29.93 in 10.0 mi South 17.3 mph 25.3 mph N/A   Clear
5:15 AM 27.1 °F 14.1 °F 16.5 °F 64% 29.93 in 10.0 mi South 18.4 mph 27.6 mph N/A   Clear
5:35 AM 27.1 °F 14.5 °F 16.7 °F 65% 29.93 in 10.0 mi South 17.3 mph 24.2 mph N/A   Clear
5:55 AM 27.1 °F 14.9 °F 16.7 °F 65% 29.93 in 10.0 mi South 16.1 mph 25.3 mph N/A   Clear
6:15 AM 27.0 °F 15.6 °F 16.7 °F 65% 29.93 in 10.0 mi South 13.8 mph 25.3 mph N/A   Clear
6:35 AM 26.8 °F 15.4 °F 17.1 °F 67% 29.93 in 10.0 mi South 13.8 mph 23.0 mph N/A   Clear
6:55 AM 27.0 °F 15.2 °F 17.2 °F 67% 29.93 in 10.0 mi South 15.0 mph 23.0 mph N/A   Clear
7:15 AM 27.3 °F 15.2 °F 17.6 °F 67% 29.93 in 10.0 mi South 16.1 mph 23.0 mph N/A   Clear
7:35 AM 27.5 °F 15.0 °F 17.8 °F 67% 29.94 in 10.0 mi South 17.3 mph 21.9 mph N/A   Clear
7:55 AM 28.0 °F 15.7 °F 18.3 °F 67% 29.94 in 10.0 mi South 17.3 mph 25.3 mph N/A   Clear
8:15 AM 28.2 °F 17.2 °F 18.5 °F 67% 29.95 in 10.0 mi South 13.8 mph 24.2 mph N/A   Clear
8:35 AM 28.8 °F 18.4 °F 19.2 °F 68% 29.95 in 10.0 mi South 12.7 mph 21.9 mph N/A   Clear
8:55 AM 30.2 °F 19.3 °F 19.9 °F 66% 29.95 in 10.0 mi South 15.0 mph 23.0 mph N/A   Clear
9:15 AM 30.9 °F 21.2 °F 20.7 °F 66% 29.96 in 10.0 mi South 12.7 mph 23.0 mph N/A   Clear
9:35 AM 30.9 °F 20.7 °F 20.7 °F 66% 29.96 in 10.0 mi South 13.8 mph 25.3 mph N/A   Clear
9:55 AM 30.4 °F 20.5 °F 20.8 °F 68% 29.96 in 10.0 mi South 12.7 mph 19.6 mph N/A   Clear
10:15 AM 32.0 °F 22.5 °F 21.2 °F 64% 29.96 in 10.0 mi SSW 12.7 mph 20.7 mph N/A   Clear
10:35 AM 32.2 °F 23.8 °F 21.4 °F 64% 29.95 in 10.0 mi SSW 10.4 mph 20.7 mph N/A   Clear
10:55 AM 33.3 °F 25.1 °F 22.5 °F 65% 29.95 in 10.0 mi SSW 10.4 mph 16.1 mph N/A   Clear
11:15 AM 34.3 °F 26.5 °F 23.0 °F 63% 29.94 in 10.0 mi South 10.4 mph 19.6 mph 0.01 in   Clear
11:35 AM 35.2 °F 28.8 °F 23.7 °F 63% 29.93 in 10.0 mi SSW 8.1 mph 17.3 mph 0.01 in   Clear
11:55 AM 36.0 °F 29.0 °F 24.4 °F 63% 29.92 in 10.0 mi South 9.2 mph 18.4 mph 0.01 in   Clear
12:15 PM 37.0 °F 30.4 °F 25.2 °F 62% 29.92 in 10.0 mi SSW 9.2 mph 17.3 mph N/A   Clear
12:35 PM 36.5 °F 29.2 °F 25.5 °F 64% 29.91 in 10.0 mi South 10.4 mph 16.1 mph N/A   Clear
12:55 PM 36.1 °F 29.3 °F 25.9 °F 66% 29.91 in 10.0 mi South 9.2 mph 16.1 mph N/A   Clear
1:15 PM 36.0 °F 28.5 °F 26.2 °F 68% 29.90 in 10.0 mi South 10.4 mph - N/A   Clear
1:35 PM 36.0 °F 28.0 °F 26.2 °F 68% 29.90 in 10.0 mi South 11.5 mph - N/A   Clear
1:55 PM 36.5 °F 28.7 °F 26.8 °F 68% 29.90 in 10.0 mi South 11.5 mph - N/A   Scattered Clouds
2:15 PM 37.2 °F 29.1 °F 26.4 °F 65% 29.90 in 10.0 mi South 12.7 mph 17.3 mph N/A   Mostly Cloudy
2:35 PM 37.4 °F 29.3 °F 26.6 °F 65% 29.90 in 10.0 mi South 12.7 mph 17.3 mph N/A   Mostly Cloudy
2:55 PM 37.2 °F 30.0 °F 26.8 °F 66% 29.91 in 10.0 mi South 10.4 mph - N/A   Mostly Cloudy
3:15 PM 36.9 °F 30.1 °F 27.3 °F 68% 29.92 in 10.0 mi South 9.2 mph - N/A   Overcast
3:35 PM 36.9 °F 32.2 °F 27.7 °F 69% 29.93 in 10.0 mi SSW 5.8 mph - N/A   Overcast
3:55 PM 36.5 °F 32.7 °F 28.0 °F 71% 29.94 in 10.0 mi SSW 4.6 mph - N/A   Overcast
4:15 PM 36.5 °F 31.8 °F 28.2 °F 72% 29.95 in 10.0 mi SSW 5.8 mph - N/A   Overcast
4:35 PM 36.7 °F 31.2 °F 28.4 °F 72% 29.94 in 10.0 mi South 6.9 mph - N/A   Overcast
4:55 PM 36.5 °F 32.7 °F 29.1 °F 75% 29.94 in 10.0 mi South 4.6 mph - N/A   Overcast
5:15 PM 35.8 °F - 29.3 °F 77% 29.94 in 10.0 mi Calm Calm - N/A   Overcast
5:35 PM 36.0 °F 32.1 °F 29.3 °F 77% 29.94 in 10.0 mi South 4.6 mph - N/A   Mostly Cloudy
5:55 PM 34.9 °F 32.0 °F 30.0 °F 82% 29.94 in 10.0 mi SSE 3.5 mph - N/A   Scattered Clouds
6:15 PM 35.2 °F - 29.7 °F 80% 29.95 in 10.0 mi Calm Calm - N/A   Mostly Cloudy
6:35 PM 34.3 °F - 30.2 °F 85% 29.95 in 10.0 mi Calm Calm - N/A   Mostly Cloudy
6:55 PM 34.0 °F - 30.2 °F 86% 29.96 in 10.0 mi Calm Calm - N/A   Overcast
7:15 PM 34.7 °F - 30.0 °F 83% 29.97 in 10.0 mi Calm Calm - N/A   Overcast
7:35 PM 34.7 °F 31.8 °F 30.0 °F 83% 29.97 in 10.0 mi South 3.5 mph - N/A   Overcast
7:55 PM 34.9 °F 32.0 °F 29.8 °F 82% 29.98 in 10.0 mi SSE 3.5 mph - N/A   Overcast
8:15 PM 34.7 °F - 30.2 °F 84% 29.98 in 10.0 mi Calm Calm - N/A   Overcast
8:35 PM 34.7 °F - 30.2 °F 84% 29.98 in 10.0 mi Calm Calm - N/A   Overcast
8:55 PM 34.2 °F 31.2 °F 30.2 °F 85% 29.98 in 10.0 mi SSE 3.5 mph - N/A   Overcast
9:15 PM 34.9 °F 30.8 °F 29.3 °F 80% 29.97 in 10.0 mi South 4.6 mph - N/A   Overcast
9:35 PM 34.9 °F - 28.8 °F 78% 29.98 in 10.0 mi Calm Calm - N/A   Overcast
9:55 PM 34.7 °F - 29.3 °F 81% 29.98 in 10.0 mi Calm Calm - N/A   Overcast
10:15 PM 34.2 °F 30.0 °F 30.0 °F 85% 29.99 in 10.0 mi WNW 4.6 mph - N/A   Overcast
10:35 PM 32.9 °F 28.5 °F 30.7 °F 92% 29.98 in 7.0 mi NW 4.6 mph - N/A   Overcast
10:55 PM 32.5 °F 28.1 °F 31.1 °F 94% 29.98 in 7.0 mi NNW 4.6 mph - N/A   Overcast
11:15 PM 32.4 °F 29.1 °F 31.1 °F 95% 29.98 in 5.0 mi NW 3.5 mph - N/A   Overcast
11:35 PM 32.0 °F 28.7 °F 30.9 °F 96% 29.98 in 4.0 mi WNW 3.5 mph - N/A   Overcast
11:55 PM 31.5 °F 24.2 °F 29.8 °F 94% 29.99 in 4.0 mi NW 8.1 mph - N/A   Overcast